K1RFS Weather Reports


time (UTC)temp
F
wind
direction
speed
knots
gust
knots
rain 1hr
in
rain 24hr
in
rain mn
in
humidity
%
barometer
mb
20260509005601 77 293 2.6 2.6 0.00 0.00 0.00 18 1000.0
20260509005055 77 162 1.7 1.7 0.00 0.00 0.00 18 1000.4
20260509004552 78 154 1.7 1.7 0.00 0.00 0.00 17 1000.2
20260509004049 78 204 0.9 0.9 0.00 0.00 0.00 18 1000.4
20260509003548 78 24 3.5 4.3 0.00 0.00 0.00 17 1000.2
20260509003044 77 187 1.7 1.7 0.00 0.00 0.00 18 1000.4
20260509002542 79 215 2.6 2.6 0.00 0.00 0.00 18 1000.4
20260509002040 79 189 0.9 0.9 0.00 0.00 0.00 18 1000.4
20260509001537 78 185 0.0 0.0 0.00 0.00 0.00 18 1000.4
20260509001032 78 214 1.7 1.7 0.00 0.00 0.00 20 1000.4
20260509000531 77 201 1.7 1.7 0.00 0.00 0.00 18 1000.4
20260509000027 78 180 3.5 4.3 0.00 0.00 0.00 20 1000.4
20260508235525 78 214 0.9 0.9 0.00 0.00 0.00 20 1000.4
20260508235020 77 205 2.6 2.6 0.00 0.00 0.00 20 1000.5
20260508234518 78 174 0.9 1.7 0.00 0.00 0.00 20 1000.4
20260508234015 78 269 4.3 4.3 0.00 0.00 0.00 20 1000.5
20260508233515 78 174 1.7 1.7 0.00 0.00 0.00 20 1000.2
20260508233011 78 218 1.7 2.6 0.00 0.00 0.00 20 1000.4
20260508232508 79 229 1.7 2.6 0.00 0.00 0.00 19 1000.1
20260508232005 78 222 1.7 4.3 0.00 0.00 0.00 20 1000.4
20260508231503 79 213 1.7 1.7 0.00 0.00 0.00 20 1000.6
20260508231000 78 193 0.9 1.7 0.00 0.00 0.00 20 1000.4
20260508230456 78 180 0.9 1.7 0.00 0.00 0.00 20 1000.5
20260508225953 77 181 1.7 2.6 0.00 0.00 0.00 20 1000.7
20260508225450 77 329 2.6 2.6 0.00 0.00 0.00 20 1000.7
20260508224947 76 178 1.7 1.7 0.00 0.00 0.00 20 1000.7
20260508224444 77 332 5.2 7.0 0.00 0.00 0.00 20 1000.8
20260508223942 77 185 2.6 2.6 0.00 0.00 0.00 20 1001.0
20260508223440 77 157 2.6 4.3 0.00 0.00 0.00 21 1000.8
20260508222936 77 198 2.6 2.6 0.00 0.00 0.00 20 1000.9
20260508222434 77 225 3.5 5.2 0.00 0.00 0.00 20 1000.8
20260508221930 77 131 5.2 7.8 0.00 0.00 0.00 20 1000.9
20260508221426 78 184 2.6 4.3 0.00 0.00 0.00 20 1001.2
20260508220923 77 195 1.7 1.7 0.00 0.00 0.00 20 1001.2
20260508220420 77 183 1.7 2.6 0.00 0.00 0.00 21 1000.9
20260508215915 77 228 2.6 2.6 0.00 0.00 0.00 21 1001.2
20260508215413 76 206 2.6 2.6 0.00 0.00 0.00 21 1001.2
20260508214909 77 185 2.6 2.6 0.00 0.00 0.00 21 1001.2
20260508214407 76 185 5.2 7.0 0.00 0.00 0.00 20 1001.5
20260508213903 77 199 2.6 4.3 0.00 0.00 0.00 21 1001.3
20260508213400 76 179 4.3 5.2 0.00 0.00 0.00 21 1001.4
20260508212855 76 191 5.2 7.8 0.00 0.00 0.00 22 1001.6
20260508212353 76 180 2.6 4.3 0.00 0.00 0.00 21 1001.6
20260508211848 77 93 6.1 7.8 0.00 0.00 0.00 21 1001.6
20260508211344 77 196 1.7 2.6 0.00 0.00 0.00 21 1001.6
20260508210842 76 203 1.7 1.7 0.00 0.00 0.00 21 1001.5
20260508210338 76 191 4.3 6.1 0.00 0.00 0.00 21 1001.5
20260508205835 76 177 2.6 2.6 0.00 0.00 0.00 21 1001.7
20260508205332 76 153 4.3 4.3 0.00 0.00 0.00 22 1001.8
20260508204828 76 203 2.6 2.6 0.00 0.00 0.00 22 1001.8
20260508204325 76 194 0.9 0.9 0.00 0.00 0.00 21 1001.8
20260508203821 76 195 5.2 7.0 0.00 0.00 0.00 22 1001.8
20260508203317 75 179 3.5 5.2 0.00 0.00 0.00 22 1001.8
20260508202813 76 202 2.6 2.6 0.00 0.00 0.00 23 1002.0
20260508202311 75 78 5.2 7.0 0.00 0.00 0.00 22 1001.7
20260508201808 75 223 2.6 2.6 0.00 0.00 0.00 21 1002.0
20260508201305 76 216 3.5 5.2 0.00 0.00 0.00 22 1002.1
20260508200801 75 188 4.3 6.1 0.00 0.00 0.00 22 1002.0
20260508200257 75 270 3.5 5.2 0.00 0.00 0.00 23 1002.1
20260508195753 75 238 2.6 4.3 0.00 0.00 0.00 22 1002.0
20260508195250 75 157 4.3 5.2 0.00 0.00 0.00 22 1002.0
20260508194746 74 235 6.1 7.0 0.00 0.00 0.00 22 1002.0
20260508194244 75 226 5.2 8.7 0.00 0.00 0.00 22 1002.0
20260508193741 75 231 3.5 5.2 0.00 0.00 0.00 23 1002.2
20260508193237 74 231 4.3 5.2 0.00 0.00 0.00 23 1002.1
20260508192734 75 246 4.3 6.1 0.00 0.00 0.00 22 1002.1
20260508192231 75 168 4.3 5.2 0.00 0.00 0.00 23 1002.1
20260508191728 74 248 3.5 4.3 0.00 0.00 0.00 23 1002.1
20260508191225 75 186 4.3 5.2 0.00 0.00 0.00 23 1002.1
20260508190722 74 266 4.3 6.1 0.00 0.00 0.00 23 1002.2
20260508190218 74 182 2.6 2.6 0.00 0.00 0.00 21 1002.3
20260508185715 74 151 3.5 5.2 0.00 0.00 0.00 22 1002.2
20260508185213 73 159 4.3 5.2 0.00 0.00 0.00 21 1002.3
20260508184710 73 54 4.3 5.2 0.00 0.00 0.00 21 1002.5
20260508184207 74 39 5.2 7.0 0.00 0.00 0.00 20 1002.5
20260508183703 74 255 3.5 5.2 0.00 0.00 0.00 21 1002.3
20260508183159 74 271 4.3 6.1 0.00 0.00 0.00 21 1002.6
20260508182655 73 297 5.2 6.1 0.00 0.00 0.00 21 1002.5
20260508182152 74 260 4.3 5.2 0.00 0.00 0.00 22 1002.6
20260508181648 74 67 2.6 2.6 0.00 0.00 0.00 22 1002.6
20260508181145 74 269 6.1 7.8 0.00 0.00 0.00 24 1002.5
20260508180642 74 262 4.3 6.1 0.00 0.00 0.00 25 1002.5
20260508180139 75 165 2.6 4.3 0.00 0.00 0.00 24 1002.6
20260508175636 73 181 0.0 0.0 0.00 0.00 0.00 27 1002.5
20260508175132 73 190 0.0 0.0 0.00 0.00 0.00 28 1002.6
20260508174630 72 186 0.0 0.9 0.00 0.00 0.00 29 1002.8
20260508174127 71 185 0.9 0.9 0.00 0.00 0.00 30 1002.8
20260508173623 71 179 0.9 0.9 0.00 0.00 0.00 30 1002.8
20260508173119 71 187 1.7 2.6 0.00 0.00 0.00 31 1003.0
20260508172617 71 189 3.5 4.3 0.00 0.00 0.00 31 1003.0
20260508172113 71 183 2.6 2.6 0.00 0.00 0.00 31 1002.6
20260508171610 70 190 2.6 2.6 0.00 0.00 0.00 31 1002.6
20260508171106 70 132 1.7 2.6 0.00 0.00 0.00 32 1002.9
20260508170604 70 206 2.6 2.6 0.00 0.00 0.00 32 1002.8
20260508170101 70 190 0.9 0.9 0.00 0.00 0.00 32 1002.9
20260508165558 69 189 0.0 0.0 0.00 0.00 0.00 32 1002.8
20260508165055 70 186 0.9 0.9 0.00 0.00 0.00 31 1002.8
20260508164551 69 104 1.7 1.7 0.00 0.00 0.00 32 1002.9
20260508164048 69 188 0.9 0.9 0.00 0.00 0.00 31 1002.8
20260508163546 69 186 0.0 0.9 0.00 0.00 0.00 31 1002.6
20260508163042 69 183 1.7 1.7 0.00 0.00 0.00 31 1002.5
20260508162539 68 193 2.6 4.3 0.00 0.00 0.00 32 1002.5
20260508162036 69 186 0.0 0.0 0.00 0.00 0.00 31 1002.6
20260508161533 68 186 0.9 1.7 0.00 0.00 0.00 31 1002.6
20260508161030 68 185 0.0 0.0 0.00 0.00 0.00 31 1002.4
20260508160529 68 184 0.0 0.0 0.00 0.00 0.00 30 1002.4
20260508160025 67 184 0.0 0.0 0.00 0.00 0.00 31 1002.4
20260508155522 67 185 0.0 0.0 0.00 0.00 0.00 34 1002.5
20260508155019 67 188 0.9 0.9 0.00 0.00 0.00 33 1002.4
20260508154517 67 188 0.0 0.0 0.00 0.00 0.00 34 1002.3
20260508154013 66 188 0.0 0.0 0.00 0.00 0.00 35 1002.5
20260508153510 66 185 0.9 0.9 0.00 0.00 0.00 36 1002.3
20260508153006 66 183 0.0 0.0 0.00 0.00 0.00 36 1002.6
20260508152503 65 184 0.0 0.0 0.00 0.00 0.00 36 1002.5
20260508151959 65 184 0.0 0.0 0.00 0.00 0.00 38 1002.4
20260508151456 64 185 0.9 0.9 0.00 0.00 0.00 38 1002.3
20260508150952 64 185 0.0 0.0 0.00 0.00 0.00 38 1002.3
20260508150449 64 183 0.0 0.0 0.00 0.00 0.00 38 1002.1
20260508145945 63 185 0.0 0.0 0.00 0.00 0.00 39 1002.0
20260508145442 63 185 0.0 0.0 0.00 0.00 0.00 40 1002.0
20260508144938 63 185 0.0 0.0 0.00 0.00 0.00 38 1002.1
20260508144436 62 185 0.0 0.0 0.00 0.00 0.00 38 1002.1
20260508143934 62 184 0.0 0.0 0.00 0.00 0.00 37 1002.2
20260508143431 61 185 0.0 0.9 0.00 0.00 0.00 37 1001.8
20260508142927 61 184 0.0 0.0 0.00 0.00 0.00 38 1002.1
20260508142425 60 184 0.0 0.0 0.00 0.00 0.00 40 1002.1
20260508141921 60 184 0.0 0.0 0.00 0.00 0.00 42 1002.1
20260508141417 60 184 0.0 0.0 0.00 0.00 0.00 41 1002.1
20260508140915 59 184 0.0 0.0 0.00 0.00 0.00 42 1001.8
20260508140412 58 183 0.0 0.9 0.00 0.00 0.00 42 1001.8
20260508135907 57 183 0.0 0.0 0.00 0.00 0.00 47 1002.0
20260508135405 56 180 0.0 0.0 0.00 0.00 0.00 47 1001.8
20260508134901 55 183 0.0 0.0 0.00 0.00 0.00 48 1002.0
20260508134357 54 184 0.0 0.0 0.00 0.00 0.00 48 1001.6
20260508133854 53 185 0.0 0.0 0.00 0.00 0.00 49 1001.7
20260508133352 53 183 0.0 0.0 0.00 0.00 0.00 50 1001.7
20260508132849 53 184 0.0 0.0 0.00 0.00 0.00 50 1001.5
20260508132347 52 182 0.9 0.9 0.00 0.00 0.00 51 1001.6
20260508131843 51 183 0.0 0.0 0.00 0.00 0.00 52 1001.5
20260508131338 51 184 0.0 0.9 0.00 0.00 0.00 52 1001.4
20260508130835 51 182 0.0 0.0 0.00 0.00 0.00 52 1001.5
20260508130332 51 186 0.0 0.0 0.00 0.00 0.00 51 1001.5
20260508125829 51 180 0.0 0.0 0.00 0.00 0.00 49 1001.5
20260508125325 51 183 0.0 0.0 0.00 0.00 0.00 49 1001.4
20260508124823 51 187 0.0 0.0 0.00 0.00 0.00 49 1001.4
20260508124319 51 184 0.0 0.9 0.00 0.00 0.00 50 1001.3
20260508123818 51 184 0.0 0.0 0.00 0.00 0.00 51 1001.2
20260508123316 51 183 0.9 0.9 0.00 0.00 0.00 51 1001.3
20260508122812 50 180 0.0 0.9 0.00 0.00 0.00 51 1000.9
20260508122309 50 177 0.0 0.9 0.00 0.00 0.00 52 1001.2
20260508121806 50 183 0.0 0.0 0.00 0.00 0.00 53 1001.2
20260508121305 50 179 0.0 0.0 0.00 0.00 0.00 53 1001.2
20260508120802 50 174 0.9 0.9 0.00 0.00 0.00 53 1001.0
20260508120300 50 184 0.9 0.9 0.00 0.00 0.00 52 1001.0
20260508115757 51 172 0.9 0.9 0.00 0.00 0.00 51 1000.8
20260508115254 52 183 0.0 0.0 0.00 0.00 0.00 50 1000.9
20260508114750 52 180 0.9 0.9 0.00 0.00 0.00 49 1001.2
20260508114247 52 186 0.9 0.9 0.00 0.00 0.00 49 1000.7
20260508113744 53 184 0.0 0.9 0.00 0.00 0.00 48 1000.9
20260508113243 53 186 0.0 0.9 0.00 0.00 0.00 48 1001.0
20260508112738 53 184 0.0 0.0 0.00 0.00 0.00 48 1000.7
20260508112235 52 186 0.9 0.9 0.00 0.00 0.00 48 1000.8
20260508111731 52 182 0.0 0.0 0.00 0.00 0.00 49 1000.9
20260508111229 52 185 0.0 0.0 0.00 0.00 0.00 50 1000.7
20260508110727 52 184 0.0 0.0 0.00 0.00 0.00 50 1000.8
20260508110224 51 186 0.0 0.0 0.00 0.00 0.00 50 1000.9
20260508105724 52 185 0.0 0.0 0.00 0.00 0.00 49 1000.7
20260508105221 52 182 0.0 0.0 0.00 0.00 0.00 48 1000.8
20260508104718 52 181 0.0 0.0 0.00 0.00 0.00 49 1000.8
20260508104215 52 183 0.0 0.9 0.00 0.00 0.00 48 1000.7
20260508103712 52 184 0.0 0.0 0.00 0.00 0.00 48 1000.7
20260508103209 52 181 0.0 0.0 0.00 0.00 0.00 49 1000.7
20260508102706 52 182 0.0 0.0 0.00 0.00 0.00 49 1000.9
20260508102205 53 183 0.0 0.0 0.00 0.00 0.00 48 1000.7
20260508101701 52 182 0.0 0.9 0.00 0.00 0.00 46 1000.7
20260508101159 52 183 0.0 0.0 0.00 0.00 0.00 46 1000.4
20260508100656 53 185 0.0 0.0 0.00 0.00 0.00 47 1000.5
20260508100154 53 182 0.0 0.0 0.00 0.00 0.00 45 1000.5
20260508095650 53 180 0.0 0.0 0.00 0.00 0.00 45 1000.4
20260508095148 53 185 0.0 0.0 0.00 0.00 0.00 46 1000.5
20260508094644 52 188 0.0 0.9 0.00 0.00 0.00 46 1000.2
20260508094141 51 182 0.0 0.0 0.00 0.00 0.00 48 1000.5
20260508093639 51 181 0.0 0.9 0.00 0.00 0.00 49 1000.5
20260508093136 51 194 0.9 0.9 0.00 0.00 0.00 49 1000.5
20260508092633 51 183 0.0 0.9 0.00 0.00 0.00 49 1000.4
20260508092132 51 183 0.0 0.0 0.00 0.00 0.00 49 1000.5
20260508091628 51 183 0.0 0.0 0.00 0.00 0.00 50 1000.5
20260508091125 51 184 0.0 0.9 0.00 0.00 0.00 50 1000.5
20260508090624 51 182 0.0 0.0 0.00 0.00 0.00 49 1000.5
20260508090121 51 183 0.0 0.0 0.00 0.00 0.00 49 1000.2
20260508085616 51 182 0.9 0.9 0.00 0.00 0.00 49 1000.2
20260508085114 51 182 0.9 0.9 0.00 0.00 0.00 51 1000.4
20260508084610 52 185 0.9 0.9 0.00 0.00 0.00 50 1000.5
20260508084108 54 184 0.0 0.0 0.00 0.00 0.00 44 1000.5
20260508083604 52 179 0.0 0.0 0.00 0.00 0.00 47 1000.5
20260508083102 52 184 0.0 0.0 0.00 0.00 0.00 48 1000.4
20260508082557 52 181 0.0 0.0 0.00 0.00 0.00 49 1000.5
20260508082055 53 182 0.0 0.9 0.00 0.00 0.00 48 1000.5
20260508081552 53 182 0.0 0.0 0.00 0.00 0.00 46 1000.4
20260508081048 54 181 0.0 0.0 0.00 0.00 0.00 46 1000.4
20260508080546 54 184 0.0 0.0 0.00 0.00 0.00 46 1000.2
20260508080043 54 172 0.9 0.9 0.00 0.00 0.00 45 1000.4
20260508075539 54 184 0.0 0.0 0.00 0.00 0.00 46 1000.4
20260508075037 54 182 0.0 0.0 0.00 0.00 0.00 45 1000.2
20260508074535 54 174 0.9 0.9 0.00 0.00 0.00 46 1000.5
20260508074031 53 183 0.0 0.0 0.00 0.00 0.00 47 1000.7
20260508073529 54 182 0.0 0.0 0.00 0.00 0.00 47 1000.5
20260508073026 54 182 0.0 0.0 0.00 0.00 0.00 46 1000.5
20260508072522 53 179 0.0 0.0 0.00 0.00 0.00 47 1000.5
20260508072019 53 183 0.0 0.0 0.00 0.00 0.00 47 1000.6
20260508071517 53 183 0.0 0.0 0.00 0.00 0.00 47 1000.5
20260508071015 53 183 0.0 0.9 0.00 0.00 0.00 48 1000.4
20260508070512 53 182 0.0 0.0 0.00 0.00 0.00 48 1000.6
20260508070010 54 185 0.0 0.0 0.00 0.00 0.00 47 1000.4
20260508065508 55 183 0.0 0.0 0.00 0.00 0.00 46 1000.2
20260508065006 56 183 0.0 0.0 0.00 0.00 0.00 44 1000.4
20260508064503 57 183 0.0 0.0 0.00 0.00 0.00 43 1000.4
20260508064000 58 183 0.0 0.0 0.00 0.00 0.00 40 1000.1
20260508063458 58 186 0.0 0.0 0.00 0.00 0.00 39 1000.4
20260508062955 59 184 0.0 0.9 0.00 0.00 0.00 39 1000.4
20260508062453 59 214 2.6 2.6 0.00 0.00 0.00 40 1000.6
20260508061949 59 206 0.9 0.9 0.00 0.00 0.00 38 1000.1
20260508061448 57 187 0.9 0.9 0.00 0.00 0.00 41 1000.1
20260508060943 57 179 0.9 0.9 0.00 0.00 0.00 43 1000.0
20260508060441 58 126 0.9 0.9 0.00 0.00 0.00 42 1000.1
20260508055937 58 176 0.0 0.9 0.00 0.00 0.00 41 1000.2
20260508055434 59 170 0.9 0.9 0.00 0.00 0.00 40 1000.0
20260508054930 59 171 1.7 2.6 0.00 0.00 0.00 40 1000.0
20260508054427 58 176 0.9 0.9 0.00 0.00 0.00 40 999.9
20260508053919 58 181 1.7 1.7 0.00 0.00 0.00 40 1000.0
20260508053416 59 173 0.9 1.7 0.00 0.00 0.00 39 999.9
20260508052913 58 184 0.9 0.9 0.00 0.00 0.00 40 1000.0
20260508052411 58 274 0.9 1.7 0.00 0.00 0.00 40 999.9
20260508051906 59 159 1.7 1.7 0.00 0.00 0.00 40 999.9
20260508051402 59 198 0.9 1.7 0.00 0.00 0.00 40 999.9
20260508050853 59 165 0.9 0.9 0.00 0.00 0.00 39 999.8
20260508050350 59 185 0.9 1.7 0.00 0.00 0.00 38 999.9
20260508045846 59 177 0.0 0.9 0.00 0.00 0.00 38 1000.0
20260508045344 59 179 0.0 0.9 0.00 0.00 0.00 38 1000.0
20260508044841 59 186 0.0 0.9 0.00 0.00 0.00 39 999.8
20260508044337 59 167 0.0 0.9 0.00 0.00 0.00 39 999.9
20260508043833 59 158 0.9 0.9 0.00 0.00 0.00 39 1000.0
20260508043330 59 182 0.0 0.9 0.00 0.00 0.00 38 999.9
20260508042827 59 183 0.0 0.9 0.00 0.00 0.00 38 999.9
20260508042325 60 186 0.9 0.9 0.00 0.00 0.00 38 1000.0
20260508041821 60 184 0.9 0.9 0.00 0.00 0.00 38 1000.0
20260508041318 60 184 0.0 0.9 0.00 0.00 0.00 38 999.9
20260508040814 60 181 0.0 0.9 0.00 0.00 0.00 38 1000.1
20260508040312 60 176 0.9 0.9 0.00 0.00 0.00 38 1000.0
20260508035809 60 181 0.9 0.9 0.00 0.00 0.00 38 1000.1
20260508035307 60 175 0.9 0.9 0.00 0.00 0.00 39 999.9
20260508034802 60 142 0.9 0.9 0.00 0.00 0.00 39 999.8
20260508034300 60 177 0.9 0.9 0.00 0.00 0.00 39 1000.0
20260508033757 61 177 0.9 0.9 0.00 0.00 0.00 37 999.8
20260508033255 61 184 0.0 0.0 0.00 0.00 0.00 37 999.8
20260508032752 61 183 0.0 0.0 0.00 0.00 0.00 38 999.7
20260508032249 61 183 0.0 0.0 0.00 0.00 0.00 39 999.8
20260508031746 63 183 0.0 0.0 0.00 0.00 0.00 36 999.6
20260508031242 64 184 0.0 0.0 0.00 0.00 0.00 35 999.3
20260508030739 64 184 0.0 0.9 0.00 0.00 0.00 35 999.4
20260508030236 65 187 0.9 0.9 0.00 0.00 0.00 34 999.6
20260508025733 65 185 0.0 0.0 0.00 0.00 0.00 33 999.4
20260508025230 66 181 0.0 0.0 0.00 0.00 0.00 32 999.6
20260508024726 67 184 0.0 0.0 0.00 0.00 0.00 31 999.7
20260508024223 67 180 0.0 0.0 0.00 0.00 0.00 30 999.6
20260508023720 68 184 0.0 0.0 0.00 0.00 0.00 30 999.3
20260508023217 68 184 0.0 0.0 0.00 0.00 0.00 29 999.2
20260508022713 69 184 0.0 0.0 0.00 0.00 0.00 28 999.3
20260508022210 69 184 0.0 0.0 0.00 0.00 0.00 27 999.4
20260508021706 70 184 0.0 0.0 0.00 0.00 0.00 27 999.3
20260508021202 72 184 0.0 0.0 0.00 0.00 0.00 26 999.2
20260508020700 74 185 0.0 0.0 0.00 0.00 0.00 25 999.2
20260508020157 75 186 0.0 0.0 0.00 0.00 0.00 24 999.1
20260508015654 74 185 0.0 0.0 0.00 0.00 0.00 24 999.2
20260508015151 75 186 0.0 0.9 0.00 0.00 0.00 24 999.0
20260508014647 75 186 0.0 0.0 0.00 0.00 0.00 24 999.0
20260508014143 74 186 0.0 0.0 0.00 0.00 0.00 24 999.1
20260508013640 74 185 0.0 0.0 0.00 0.00 0.00 24 999.4
20260508013136 74 186 0.0 0.0 0.00 0.00 0.00 24 999.3
20260508012635 74 184 0.0 0.9 0.00 0.00 0.00 24 999.1
20260508012131 75 191 0.9 0.9 0.00 0.00 0.00 23 999.2
20260508011630 76 200 0.9 1.7 0.00 0.00 0.00 23 999.4
20260508011127 77 198 0.0 0.9 0.00 0.00 0.00 23 999.2
20260508010623 78 186 0.0 0.0 0.00 0.00 0.00 22 999.2
20260508010122 76 186 0.0 0.0 0.00 0.00 0.00 21 999.3